Weather History for Soenderborg, Denmark

Change the Weather History Date:

Thursday, May 10, 2012

  Actual Average Record
Temperature  
Mean Temperature 60 °F -  
Max Temperature 64 °F 61 °F 75 °F (1998)
Min Temperature 55 °F 49 °F 39 °F (2005)
Degree Days  
Heating Degree Days 6    
Growing Degree Days 10 (Base 50)    
Moisture  
Dew Point 59 °F    
Average Humidity 97    
Maximum Humidity 100    
Minimum Humidity 88    
Precipitation  
Precipitation 0.00 in - - ()
Sea Level Pressure  
Sea Level Pressure 29.88 in    
Wind  
Wind Speed 8 mph ()    
Max Wind Speed 14 mph    
Max Gust Speed 26 mph    
Visibility 3.6 miles    
Events Rain    
Averages and records for this station are not official NWS values.
T = Trace of Precipitation, MM = Missing Value Source: Averaged Metar Reports

Daily Weather History Graph

Daily Weather History Graph

Search for Another Location

Airport:

Trip Planner

Search our weather history database for the weather conditions in past years. The results will help you decide how hot, cold, wet, or windy it might be!

Date:

Astronomy

May. 10, 2012 Rise Set
Actual Time 5:22 AM CEST 9:13 PM CEST
Civil Twilight 4:36 AM CEST 9:59 PM CEST
Nautical Twilight 3:30 AM CEST 11:06 PM CEST
Astronomical Twilight 1:49 AM CEST 12:44 AM CEST
Moon 1:05 AM CEST (5/10) 9:22 AM CEST (5/10)
Length of Visible Light 17h 23m
Length of Day
15h 51m
Waning Gibbous, 76% of the Moon is Illuminated
May 10
Waning Gibbous
May 12
Last Quarter
May 21
New
May 28
First Quarter
Jun 4
Full

Hourly Weather History & Observations

Time (CEST) Temp. Dew Point Humidity Pressure Visibility Wind Dir Wind Speed Gust Speed Precip Events Conditions
5:50 AM 55.4 °F 55.4 °F 100% 29.92 in 1.9 mi South 5.8 mph - N/A   Mist
6:20 AM 57.2 °F 55.4 °F 94% 29.92 in 1.9 mi South 6.9 mph - N/A   Mist
6:50 AM 57.2 °F 55.4 °F 94% 29.92 in 2.5 mi South 5.8 mph - N/A Rain Light Rain
7:20 AM 57.2 °F 55.4 °F 94% 29.95 in 2.5 mi South 5.8 mph - N/A Rain Light Rain
7:50 AM 57.2 °F 57.2 °F 100% 29.92 in 2.2 mi South 5.8 mph - N/A Rain Light Rain
8:20 AM 57.2 °F 57.2 °F 100% 29.92 in 3.1 mi SSE 8.1 mph - N/A Rain Light Rain
8:50 AM 57.2 °F 57.2 °F 100% 29.92 in 3.1 mi SSE 10.4 mph - N/A Rain Light Rain
9:20 AM 57.2 °F 57.2 °F 100% 29.92 in 3.7 mi SSE 11.5 mph - N/A Rain Light Rain
9:58 AM 57.2 °F 57.2 °F 100% 29.92 in 3.7 mi SSE 11.5 mph - N/A Rain Light Rain
10:51 AM 59.0 °F 57.2 °F 94% 29.89 in 3.1 mi SSE 11.5 mph - N/A Rain Light Rain
11:19 AM 59.0 °F 59.0 °F 100% 29.89 in 2.5 mi SSE 9.2 mph - N/A Rain Light Rain
11:49 AM 60.8 °F 59.0 °F 94% 29.86 in 3.1 mi South 11.5 mph - N/A Rain Light Rain
12:21 PM 60.8 °F 59.0 °F 94% 29.86 in 1.9 mi South 11.5 mph - N/A Rain Light Rain
12:50 PM 60.8 °F 60.8 °F 100% 29.86 in 3.1 mi South 11.5 mph - N/A Rain Light Rain
1:20 PM 60.8 °F 60.8 °F 100% 29.86 in 2.5 mi South 11.5 mph - N/A Rain Rain
1:50 PM 62.6 °F 60.8 °F 94% 29.83 in 5.0 mi SSW 11.5 mph 26.5 mph N/A Rain Light Rain
2:20 PM 62.6 °F 60.8 °F 94% 29.83 in 2.5 mi South 11.5 mph - N/A Rain Light Rain
2:50 PM 62.6 °F 60.8 °F 94% 29.83 in 5.0 mi South 12.7 mph - N/A Rain Light Rain
3:18 PM 62.6 °F 62.6 °F 100% 29.83 in 2.8 mi SSW 12.7 mph 24.2 mph N/A Rain Light Rain
3:50 PM 62.6 °F 62.6 °F 100% 29.83 in 3.1 mi SSW 11.5 mph - N/A Rain Light Rain
4:50 PM 64.4 °F 62.6 °F 94% 29.86 in 4.3 mi SSW 13.8 mph - N/A Rain Light Rain Showers
5:53 PM 64.4 °F 62.6 °F 94% 29.86 in 6.2 mi SW 10.4 mph - N/A   Mostly Cloudy
7:50 PM 62.6 °F 60.8 °F 94% 29.86 in 6.2 mi SW 6.9 mph - N/A   Mostly Cloudy
8:50 PM 60.8 °F 59.0 °F 94% 29.86 in 6.2 mi SW 6.9 mph - N/A   Mostly Cloudy
9:52 PM 62.6 °F 59.0 °F 88% 29.86 in 6.2 mi SW 8.1 mph - N/A   Mostly Cloudy
10:50 PM 60.8 °F 60.8 °F 100% 29.86 in 6.2 mi SSW 5.8 mph - N/A Rain Light Rain Showers